Location: Clatteringshaws Loch
(55.0508°N, 4.2860°W)
Time: 18:24:24
(UTC+01:00)

ALOS - Visible Passes

Search period start: 21 October 2017 00:00
Search period end: 30 October 2017 23:00
Orbit: 685 x 686 km, 97.8° (Epoch: 21 October)

Date Brightness Start Highest point End Pass type
(mag) Time Alt. Az. Time Alt. Az. Time Alt. Az.
21 Oct 5.5 07:18:55 10° NE 07:21:33 15° E 07:24:10 10° ESE visible
21 Oct 3.4 20:05:50 10° S 20:10:19 46° W 20:14:51 10° NNW visible
22 Oct 2.3 19:05:41 10° SSE 19:10:17 60° ENE 19:14:55 10° N visible
22 Oct 4.6 20:44:21 10° SW 20:48:07 24° W 20:51:54 10° NW visible
23 Oct 2.6 19:43:06 10° S 19:47:46 70° WSW 19:52:28 10° NNW visible
23 Oct 5.4 21:24:18 10° WSW 21:26:06 12° W 21:27:55 10° WNW visible
24 Oct 2.7 18:43:31 10° SE 18:47:53 41° ENE 18:52:17 10° N visible
24 Oct 3.9 20:21:09 10° SSW 20:25:25 35° W 20:29:44 10° NNW visible
25 Oct 2.2 19:20:35 10° SSE 19:25:15 79° ENE 19:29:58 10° NNW visible
25 Oct 5.0 21:00:05 10° SW 21:03:17 18° W 21:06:31 10° NW visible
26 Oct 5.6 07:11:48 10° NE 07:13:58 13° E 07:16:07 10° ESE visible
26 Oct 3.1 19:58:15 10° S 20:02:49 52° W 20:07:24 10° NNW visible
27 Oct 2.4 18:58:16 10° SE 19:02:49 53° ENE 19:07:23 10° N visible
27 Oct 4.4 20:36:37 10° SSW 20:40:33 26° W 20:44:32 10° NW visible
28 Oct 2.4 19:35:35 10° SSE 19:40:15 79° WSW 19:44:59 10° NNW visible
28 Oct 5.3 21:16:09 10° WSW 21:18:31 14° W 21:20:53 10° NW visible
29 Oct 5.3 06:26:05 10° NE 06:29:11 17° E 06:32:16 10° SE visible
29 Oct 2.8 17:36:10 10° SE 17:40:27 37° ENE 17:44:45 10° N visible
29 Oct 3.7 19:13:30 10° SSW 19:17:53 39° W 19:22:18 10° NNW visible
30 Oct 2.2 18:13:08 10° SSE 18:17:46 71° ENE 18:22:28 10° NNW visible
30 Oct 4.8 19:52:15 10° SW 19:55:43 20° W 19:59:13 10° NW visible
